TimeCST,TemperatureF,Dew PointF,Humidity,Sea Level PressureIn,VisibilityMPH,Wind Direction,Wind SpeedMPH,Gust SpeedMPH,PrecipitationIn,Events,Conditions,WindDirDegrees,DateUTC
12:54 AM,7.0,-2.0,67,30.08,10.0,WNW,13.8,-,N/A,,Partly Cloudy,300,2013-01-13 06:54:00
1:35 AM,6.8,-0.4,72,29.99,10.0,WNW,9.2,-,N/A,,Mostly Cloudy,300,2013-01-13 07:35:00
1:54 AM,6.1,-0.9,73,30.08,10.0,WNW,10.4,-,N/A,,Overcast,300,2013-01-13 07:54:00
2:54 AM,6.1,-0.9,73,30.08,10.0,WNW,12.7,-,N/A,,Overcast,300,2013-01-13 08:54:00
3:54 AM,5.0,-2.0,73,30.07,10.0,NW,11.5,-,N/A,,Mostly Cloudy,320,2013-01-13 09:54:00
4:54 AM,3.9,-2.0,76,30.08,10.0,WNW,11.5,-,N/A,,Overcast,290,2013-01-13 10:54:00
5:35 AM,3.2,-2.2,78,30.00,10.0,NW,12.7,-,N/A,,Scattered Clouds,310,2013-01-13 11:35:00
5:54 AM,3.9,-2.9,73,30.10,10.0,NW,10.4,-,N/A,,Clear,310,2013-01-13 11:54:00
6:54 AM,3.9,-2.9,73,30.15,10.0,WNW,9.2,-,N/A,,Mostly Cloudy,290,2013-01-13 12:54:00
7:46 AM,3.2,-4.0,72,30.06,10.0,WNW,10.4,-,N/A,,Scattered Clouds,300,2013-01-13 13:46:00
7:54 AM,3.0,-4.0,73,30.16,10.0,WNW,9.2,-,N/A,,Partly Cloudy,300,2013-01-13 13:54:00
8:54 AM,3.9,-2.9,73,30.17,10.0,WNW,11.5,-,N/A,,Clear,300,2013-01-13 14:54:00
9:54 AM,6.1,-0.9,73,30.17,10.0,WNW,11.5,-,N/A,,Clear,300,2013-01-13 15:54:00
10:54 AM,7.0,-0.9,70,30.14,9.0,NW,13.8,-,N/A,,Partly Cloudy,310,2013-01-13 16:54:00
11:25 AM,8.6,-0.4,67,30.04,7.0,WNW,10.4,-,N/A,,Mostly Cloudy,300,2013-01-13 17:25:00
11:54 AM,9.0,1.0,70,30.12,5.0,WNW,11.5,-,0.00,Snow,Light Snow,290,2013-01-13 17:54:00
12:38 PM,10.4,1.4,67,30.04,2.5,WNW,8.1,-,0.00,Snow,Light Snow,300,2013-01-13 18:38:00
12:54 PM,10.0,1.0,67,30.13,5.0,WNW,10.4,-,0.00,,Haze,300,2013-01-13 18:54:00
1:54 PM,10.9,-0.0,61,30.14,6.0,WNW,9.2,-,0.00,Snow,Light Snow,290,2013-01-13 19:54:00
2:54 PM,10.9,1.0,64,30.15,9.0,West,12.7,-,0.00,,Overcast,280,2013-01-13 20:54:00
3:07 PM,10.4,3.2,73,30.06,1.8,WNW,16.1,-,0.00,Snow,Light Snow,290,2013-01-13 21:07:00
3:20 PM,10.4,1.4,67,30.07,3.0,WNW,12.7,-,0.00,Snow,Light Snow,290,2013-01-13 21:20:00
3:33 PM,10.4,1.4,67,30.08,10.0,WNW,16.1,-,0.00,,Overcast,300,2013-01-13 21:33:00
3:54 PM,10.0,1.0,67,30.17,9.0,West,16.1,-,0.00,,Overcast,270,2013-01-13 21:54:00
4:52 PM,8.6,-0.4,67,30.09,10.0,West,16.1,-,N/A,,Scattered Clouds,280,2013-01-13 22:52:00
4:54 PM,8.1,-0.0,70,30.19,9.0,West,13.8,-,N/A,,Scattered Clouds,280,2013-01-13 22:54:00
5:54 PM,8.1,-0.0,70,30.22,10.0,WNW,12.7,-,N/A,,Clear,290,2013-01-13 23:54:00
6:54 PM,8.1,1.0,73,30.23,10.0,West,12.7,-,N/A,,Partly Cloudy,280,2013-01-14 00:54:00
7:54 PM,6.1,-0.0,76,30.26,10.0,West,16.1,-,N/A,,Clear,280,2013-01-14 01:54:00
8:54 PM,5.0,-0.9,76,30.28,10.0,West,11.5,-,N/A,,Clear,280,2013-01-14 02:54:00
9:54 PM,5.0,-2.0,73,30.29,10.0,WNW,12.7,-,N/A,,Clear,290,2013-01-14 03:54:00
10:54 PM,5.0,-2.0,73,30.30,10.0,WNW,9.2,-,N/A,,Clear,290,2013-01-14 04:54:00
11:54 PM,5.0,-0.9,76,30.30,10.0,West,9.2,-,N/A,,Clear,280,2013-01-14 05:54:00